Location: ?????
(31.8092°N, 35.2590°E)
Time: 19:58:24
(UTC+00:00)

Cosmos 1110 Rocket - Pass Details

Date: 20 June 2021
Orbit: 752 x 782 km, 74.0° (Epoch: 01 August)

Event Time Altitude Azimuth Distance (km) Brightness Sun altitude
Rises 18:01:01 0° 189° (S) 3,184 6.9 -13.8°
Reaches altitude 10° 18:03:22 10° 187° (S) 2,264 6.1 -14.2°
Maximum altitude 18:08:28 69° 104° (ESE) 804 3.9 -15.0°
Drops below altitude 10° 18:13:37 10° 22° (NNE) 2,289 6.7 -15.8°
Sets 18:16:00 0° 20° (NNE) 3,222 7.5 -16.2°
